Location: Çayiçi
(36.4667°N, 30.2333°E)
Time: 01:56:59
(UTC+00:00)

Spot 1 - Pass Details

Date: 09 February 2023
Orbit: 575 x 772 km, 98.8° (Epoch: 01 April)

Event Time Altitude Azimuth Distance (km) Brightness Sun altitude
Exits shadow 17:21:36 - 5° (N) 2,074 6.7 -22.2°
Reaches altitude 10° 17:22:03 10° 4° (N) 1,891 6.5 -22.3°
Maximum altitude 17:26:02 57° 286° (WNW) 690 4.5 -23.1°
Drops below altitude 10° 17:30:05 10° 208° (SSW) 1,920 6.9 -23.9°
Sets 17:32:18 0° 204° (SSW) 2,839 7.8 -24.4°
